Regional Weather Roundup
Issued by NWS

Home | Current Version | Previous Version | Graphics & Text | Print | Product List | Glossary On
Versions: 1 2 3 4 5 6 7 8 9 10 11 12 13 14 15 16 17 18 19 20 21 22 23 24 25 26 27 28 29 30 31 32 33 34 35 36 37 38 39 40 41 42 43 44 45 46 47 48 49 50
116
ASUS44 KLIX 061610
RWRLA
LOUISIANA WEATHER ROUNDUP
NATIONAL WEATHER SERVICE NEW ORLEANS LA
1000 AM CST FRI MAR 06 2015

NOTE: "FAIR" INDICATES FEW OR NO CLOUDS BELOW 12,000 FEET WITH NO
      SIGNIFICANT WEATHER AND/OR OBSTRUCTIONS TO VISIBILITY.
      SKY/WX - SKY CONDITION AND SIGNIFICANT WEATHER.
      TMP - AIR TEMPERATURE.    DP   - DEWPOINT TEMPERATURE.
      RH  - RELATIVE HUMIDITY.  PRES - PRESSURE.
      HX  - HEAT INDEX.         WCI  - WIND CHILL INDEX.

*  THESE STATIONS ARE NOT NWS OR FAA STATIONS AND ARE NOT UNDER
   NWS QUALITY CONTROL.

LAZ040-048-061>063-065-066-069-061700-
SOUTHEAST LOUISIANA

CITY           SKY/WX    TMP DP  RH WIND       PRES   REMARKS
N.O. AUDUBON     N/A     42  27  55 MISG        N/A
N.O. INTL ARPT PTSUNNY   39  23  52 N17G25    30.51S WCI  30
N.O. LAKEFRONT SUNNY     42  22  44 N18       30.52R
SLIDELL        SUNNY     40  18  41 N10G21    30.50S WCI  33
BATON ROUGE    SUNNY     37  14  38 N9        30.56S WCI  30
BOOTHVILLE     SUNNY     40  29  64 N13G22    30.47  WCI  32
BELLE CHASSE   PTSUNNY   40  22  48 N8G17     30.50  WCI  34
BOGALUSA*        N/A     39  20  47 N12       30.55R WCI  32
GALLIANO*      SUNNY     44  27  52 N17       30.48F
NEW ROADS*     FAIR      37  13  37 N14       30.59R WCI  28
GONZALES*      FAIR      38  15  39 N12       30.53F WCI  30
HAMMOND*       SUNNY     39  14  35 N10G17    30.55S WCI  32
HOUMA*         MOSUNNY   39  25  56 N12G21    30.50S WCI  32
PORT FOURCHON*   N/A     39  27  60 N15       30.51R WCI  31

$$

LAZ041-044-053-054-061700-
SOUTHWEST LOUISIANA

CITY           SKY/WX    TMP DP  RH WIND       PRES   REMARKS
LAKE CHARLES   SUNNY     39  17  41 NE17      30.58S WCI  30
LAFAYETTE      SUNNY     38  12  34 NE17G26   30.57R WCI  28
PATTERSON      SUNNY     37  18  44 N16       30.53S WCI  28
SALT POINT       N/A     40  17  39 N9G17     30.50  WCI  34
NEW IBERIA     SUNNY    N/A N/A N/A MISG      30.56S
CHENAULT AIRPK SUNNY     37  16  41 NE17G23   30.59  WCI  28

$$

LAZ027-028-061700-
CENTRAL LOUISIANA

CITY           SKY/WX    TMP DP  RH WIND       PRES   REMARKS
FORT POLK      SUNNY     37  13  37 NE12G20   30.58F WCI  29
ALEXANDRIA INT SUNNY     37  17  44 NE8       30.61S WCI  31
ALEXANDRIA     SUNNY     39  16  39 E10G16    30.60S WCI  32

$$

LAZ001-002-061700-
NORTHWEST LOUISIANA

CITY           SKY/WX    TMP DP  RH WIND       PRES   REMARKS
SHREVEPORT     MOSUNNY   39  15  37 VRB5      30.61F
BARKSDALE AFB  SUNNY     38  15  39 E2        30.62F
DTN SHREVEPORT SUNNY     37  12  35 E6        30.63S WCI  32

$$

LAZ014-016-061700-
NORTHEAST LOUISIANA

CITY           SKY/WX    TMP DP  RH WIND       PRES   REMARKS
MONROE         SUNNY     34  19  54 NE9       30.65S WCI  27
TALLULAH       SUNNY     35  17  47 NE9       30.63S WCI  28

$$




USA.gov is the U.S. government's official web portal to all federal, state and local government web resources and services.